Weather in Saint George's

Grenada     12°03′13″N   61°45′05″W
temp.,
°C
wind,
m/s
gust,
m/s
humid.,
%
clouds,
%
prec.,
mm/h
press.,
hPa
HPBL,
m
1 march, mon
mon123:00+24ne7107837 0.1 10131091
02:00+24ne7107830 0.3 10111031
05:00+24ne710740 0.3 10111061
08:00+24ne69735 0.3 10131058
11:00+26ne796551 0.1 10141210
14:00+26ne686526 0.1 10111208
17:00+25ne58720 0.0 10111045
20:00+24ne58770 0.0 1012820
2 march, tue
tue223:00+24ene58775 0.1 1013683
02:00+23ne58703 0.1 1012558
05:00+23ene59738 0.0 1011658
08:00+25ene68685 0.0 1013863
11:00+26ene68608 0.0 1014908
14:00+26e56644 0.0 10121008
17:00+25ene567215 0.0 1011982
20:00+24ene587844 0.1 1013801
3 march, wed
wed323:00+24ene69818 0.2 1014829
02:00+24ene697812 0.4 1013806
05:00+24ene69760 0.0 1013830
08:00+25ene69750 0.0 1015924
11:00+26ene68690 0.0 10161066
14:00+27ene78692 0.0 10141161
17:00+26ene79771 0.0 1013937
20:00+25ene698111 0.1 1014890
4 march, thu
thu423:00+25e69826 0.3 1015813
02:00+25e58803 0.3 1014756
05:00+24ene588311 0.1 1013741
08:00+26e68796 0.3 1015867
11:00+27e68737 0.2 1016955
14:00+27e797312 0.6 1013933
17:00+26e7107935 1.6 1012912
20:00+25e7108357 2.6 1013862
5 march, fri
fri523:00+25e7108299 0.4 1014846
02:00+26e7108293 0.5 1012917
05:00+26e71081100 0.2 1012899
08:00+26e7107883 0.3 1014902
11:00+27ese797420 0.0 1015911
14:00+27e797341 0.0 1012932
17:00+26e810816 0.1 1011847
20:00+25e7108216 0.1 1012853